User: anonymous   Login
Location: *
(2.5500°S, 65.9667°W)
Time: 03:41:08
(UTC+00:00)
Language:

CZ-4 R/B - Orbit

View from above orbital plane
View from above orbital plane
View from above satellite
View from above satellite

Ground track
Ground track

The orbit data is extracted from the following two-line orbital elements,

1 28414U 04035B   22026.90489831 -.00000327  00000-0 -25038-4 0  9991
2 28414  97.7270  49.6230 0006890 148.8519 211.3113 14.94453803946817
Epoch (UTC): 26 January 2022 21:43:03
Eccentricity: 0.0006890
inclination: 97.7270°
perigee height: 579 km
apogee height: 589 km
right ascension of ascending node: 49.6230°
argument of perigee: 148.8519°
revolutions per day: 14.94453803
mean anomaly at epoch: 211.3113°
orbit number at epoch: 94681

The dashed part of the orbit path shows where the satellite is in the earth's shadow,  

DLR